Huntingburg, IN

5:28 PM EDT on May 23, 2017 (GMT -0400)
Huntingburg

Weather History for KHNB - April, 2013

Change the Weather History Date:

Thursday, April 11, 2013

  Actual Average Record
Temperature  
Mean Temperature 62 °F -  
Max Temperature 75 °F 63 °F 82 °F (2001)
Min Temperature 48 °F 44 °F 30 °F (2012)
Degree Days  
Heating Degree Days 4    
Growing Degree Days 12 (Base 50)    
Moisture  
Dew Point 55 °F    
Average Humidity 80    
Maximum Humidity 94    
Minimum Humidity 50    
Precipitation  
Precipitation 0.91 in - - ()
Sea Level Pressure  
Sea Level Pressure 29.69 in    
Wind  
Wind Speed 13 mph (SSW)    
Max Wind Speed 28 mph    
Max Gust Speed 43 mph    
Visibility 10 miles    
Events Thunderstorm    
Averages and records for this station are not official NWS values.
T = Trace of Precipitation, MM = Missing Value Source: NWS Daily Summary

Daily Weather History Graph

Daily Weather History Graph

Search for Another Location

Airport or City:

Trip Planner

Search our weather history database for the weather conditions in past years. The results will help you decide how hot, cold, wet, or windy it might be!

Date:

Astronomy

Apr. 11, 2013 Rise Set
Actual Time 7:17 AM EDT 8:20 PM EDT
Civil Twilight 6:50 AM EDT 8:47 PM EDT
Nautical Twilight 6:18 AM EDT 9:20 PM EDT
Astronomical Twilight 5:44 AM EDT 9:53 PM EDT
Moon 7:50 AM EDT (4/11) 9:52 PM EDT (4/11)
Length of Visible Light 13h 57m
Length of Day
13h 03m
New Moon, 2% of the Moon is Illuminated
Apr 11
New Moon
Apr 18
First Quarter
Apr 25
Full
May 2
Last Quarter
May 9
New

Hourly Weather History & Observations

Time (EDT) Temp. Dew Point Humidity Pressure Visibility Wind Dir Wind Speed Gust Speed Precip Events Conditions
12:15 AM 75.2 °F 57.2 °F 53% 29.74 in 10.0 mi SSE 11.5 mph 17.3 mph N/A   Clear
12:35 AM 75.2 °F 57.2 °F 53% 29.74 in 10.0 mi South 15.0 mph 20.7 mph N/A   Clear
12:55 AM 75.2 °F 55.4 °F 50% 29.75 in 10.0 mi South 16.1 mph - N/A   Clear
1:15 AM 75.2 °F 55.4 °F 50% 29.74 in 10.0 mi South 12.7 mph 21.9 mph N/A   Partly Cloudy
1:35 AM 73.4 °F 55.4 °F 53% 29.73 in 10.0 mi South 10.4 mph - N/A   Clear
1:55 AM 73.4 °F 55.4 °F 53% 29.73 in 10.0 mi South 10.4 mph 16.1 mph N/A   Clear
2:35 AM 75.2 °F 55.4 °F 50% 29.74 in 10.0 mi South 15.0 mph 21.9 mph N/A   Clear
2:55 AM 69.8 °F 57.2 °F 64% 29.76 in 10.0 mi West 19.6 mph - N/A Thunderstorm Thunderstorm
3:15 AM 66.2 °F 60.8 °F 83% 29.77 in 10.0 mi WSW 9.2 mph - 0.05 in Thunderstorm Thunderstorm
3:35 AM 64.4 °F 60.8 °F 88% 29.79 in 10.0 mi West 15.0 mph - 0.18 in Thunderstorm Thunderstorm
3:55 AM 64.4 °F 60.8 °F 88% 29.78 in 10.0 mi WNW 5.8 mph - 0.24 in Thunderstorm Mostly Cloudy
4:15 AM 62.6 °F 59.0 °F 88% 29.77 in 7.0 mi North 8.1 mph - 0.02 in   Mostly Cloudy
4:35 AM 60.8 °F 57.2 °F 88% 29.75 in 6.0 mi NE 9.2 mph - 0.03 in   Mostly Cloudy
4:55 AM 60.8 °F 57.2 °F 88% 29.76 in 9.0 mi NE 9.2 mph - 0.09 in Thunderstorm Mostly Cloudy
5:15 AM 60.8 °F 57.2 °F 88% 29.76 in 8.0 mi East 5.8 mph - 0.03 in Thunderstorm Overcast
5:35 AM 60.8 °F 57.2 °F 88% 29.75 in 5.0 mi East 12.7 mph - 0.10 in   Overcast
5:55 AM 62.6 °F 57.2 °F 82% 29.68 in 9.0 mi ESE 18.4 mph 38.0 mph 0.15 in Thunderstorm Mostly Cloudy
6:15 AM 64.4 °F 59.0 °F 83% 29.66 in 10.0 mi SE 9.2 mph 17.3 mph N/A   Partly Cloudy
6:35 AM 66.2 °F 59.0 °F 78% 29.65 in 10.0 mi SSE 24.2 mph 42.6 mph N/A   Partly Cloudy
6:55 AM 64.4 °F 59.0 °F 83% 29.64 in 10.0 mi SE 27.6 mph 41.4 mph N/A   Scattered Clouds
7:15 AM 64.4 °F 59.0 °F 83% 29.69 in 10.0 mi South 16.1 mph 26.5 mph N/A   Clear
7:35 AM 64.4 °F 59.0 °F 83% 29.70 in 10.0 mi South 17.3 mph 25.3 mph N/A   Clear
7:55 AM 64.4 °F 57.2 °F 77% 29.69 in 10.0 mi SSE 13.8 mph 25.3 mph N/A   Clear
8:15 AM 64.4 °F 57.2 °F 77% 29.69 in 10.0 mi South 15.0 mph 21.9 mph N/A   Clear
8:35 AM 64.4 °F 57.2 °F 77% 29.71 in 10.0 mi South 12.7 mph - N/A   Clear
9:35 AM 64.4 °F 57.2 °F 77% 29.70 in 10.0 mi South 10.4 mph 19.6 mph N/A   Clear
9:55 AM 64.4 °F 57.2 °F 77% 29.70 in 10.0 mi South 16.1 mph 19.6 mph N/A   Partly Cloudy
10:15 AM 64.4 °F 57.2 °F 77% 29.67 in 10.0 mi SSE 17.3 mph 27.6 mph N/A   Scattered Clouds
10:35 AM 64.4 °F 57.2 °F 77% 29.71 in 10.0 mi WSW 12.7 mph 20.7 mph N/A   Mostly Cloudy
10:55 AM 64.4 °F 57.2 °F 77% 29.72 in 10.0 mi SSW 12.7 mph 20.7 mph N/A   Overcast
11:15 AM 64.4 °F 59.0 °F 83% 29.73 in 10.0 mi South 15.0 mph 24.2 mph N/A   Mostly Cloudy
11:35 AM 64.4 °F 59.0 °F 83% 29.73 in 10.0 mi South 16.1 mph - N/A   Partly Cloudy
11:55 AM 64.4 °F 59.0 °F 83% 29.74 in 10.0 mi South 17.3 mph 24.2 mph N/A   Partly Cloudy
12:15 PM 64.4 °F 59.0 °F 83% 29.74 in 10.0 mi SSW 17.3 mph 21.9 mph N/A   Mostly Cloudy
12:35 PM 64.4 °F 59.0 °F 83% 29.73 in 10.0 mi South 15.0 mph 21.9 mph N/A   Mostly Cloudy
1:15 PM 64.4 °F 59.0 °F 83% 29.71 in 10.0 mi South 13.8 mph 19.6 mph N/A   Mostly Cloudy
1:35 PM 64.4 °F 59.0 °F 83% 29.71 in 10.0 mi South 12.7 mph 17.3 mph N/A   Partly Cloudy
1:55 PM 62.6 °F 59.0 °F 88% 29.72 in 9.0 mi South 13.8 mph - 0.01 in   Mostly Cloudy
2:15 PM 62.6 °F 57.2 °F 82% 29.71 in 10.0 mi South 12.7 mph 17.3 mph 0.04 in   Mostly Cloudy
2:35 PM 62.6 °F 57.2 °F 82% 29.68 in 10.0 mi SSE 8.1 mph - 0.06 in   Overcast
2:55 PM 62.6 °F 57.2 °F 82% 29.67 in 10.0 mi SE 9.2 mph - 0.06 in   Overcast
3:15 PM 62.6 °F 57.2 °F 82% 29.67 in 10.0 mi SSE 8.1 mph - 0.03 in   Overcast
3:35 PM 62.6 °F 57.2 °F 82% 29.67 in 10.0 mi SSE 8.1 mph - 0.06 in   Mostly Cloudy
3:55 PM 62.6 °F 57.2 °F 82% 29.68 in 9.0 mi South 10.4 mph 17.3 mph 0.09 in   Overcast
4:15 PM 60.8 °F 57.2 °F 88% 29.67 in 9.0 mi South 10.4 mph - 0.03 in   Overcast
4:35 PM 60.8 °F 57.2 °F 88% 29.66 in 10.0 mi South 8.1 mph - 0.05 in   Overcast
4:55 PM 60.8 °F 57.2 °F 88% 29.66 in 8.0 mi South 11.5 mph - 0.09 in   Mostly Cloudy
5:15 PM 60.8 °F 55.4 °F 82% 29.63 in 10.0 mi SSE 10.4 mph - 0.05 in   Mostly Cloudy
5:35 PM 60.8 °F 55.4 °F 82% 29.62 in 10.0 mi SSE 10.4 mph - 0.10 in   Mostly Cloudy
5:55 PM 60.8 °F 55.4 °F 82% 29.61 in 9.0 mi SSE 11.5 mph 16.1 mph 0.13 in   Mostly Cloudy
6:15 PM 59.0 °F 55.4 °F 88% 29.62 in 9.0 mi South 8.1 mph - 0.03 in   Overcast
6:35 PM 59.0 °F 55.4 °F 88% 29.64 in 10.0 mi South 8.1 mph - 0.04 in   Overcast
6:55 PM 59.0 °F 55.4 °F 88% 29.56 in 10.0 mi East 9.2 mph - 0.04 in   Mostly Cloudy
7:15 PM 59.0 °F 55.4 °F 88% 29.60 in 10.0 mi WSW 5.8 mph - N/A   Scattered Clouds
7:35 PM 55.4 °F 51.8 °F 88% 29.62 in 10.0 mi WNW 11.5 mph 25.3 mph N/A   Overcast
7:55 PM 53.6 °F 51.8 °F 94% 29.60 in 9.0 mi WNW 10.4 mph - 0.01 in   Overcast
8:15 PM 53.6 °F 50.0 °F 88% 29.60 in 3.0 mi WNW 10.4 mph - N/A   Overcast
8:35 PM 53.6 °F 50.0 °F 88% 29.60 in 5.0 mi WNW 10.4 mph - N/A   Overcast
8:55 PM 53.6 °F 50.0 °F 88% 29.61 in 10.0 mi WNW 8.1 mph - N/A   Overcast
9:15 PM 53.6 °F 48.2 °F 82% 29.63 in 10.0 mi WNW 12.7 mph 16.1 mph N/A   Overcast
9:35 PM 51.8 °F 48.2 °F 88% 29.64 in 10.0 mi WNW 15.0 mph - N/A   Overcast
9:55 PM 51.8 °F 46.4 °F 82% 29.65 in 10.0 mi West 11.5 mph - N/A   Overcast
10:15 PM 51.8 °F 46.4 °F 82% 29.67 in 10.0 mi West 15.0 mph - N/A   Overcast
10:35 PM 51.8 °F 46.4 °F 82% 29.67 in 9.0 mi WNW 18.4 mph 21.9 mph N/A   Overcast
10:55 PM 50.0 °F 44.6 °F 82% 29.67 in 10.0 mi WNW 20.7 mph 24.2 mph N/A   Overcast
11:15 PM 50.0 °F 44.6 °F 82% 29.66 in 10.0 mi WNW 13.8 mph 18.4 mph N/A   Overcast
11:35 PM 48.2 °F 44.6 °F 87% 29.67 in 10.0 mi WNW 15.0 mph 21.9 mph N/A   Overcast
11:55 PM 48.2 °F 42.8 °F 82% 29.68 in 10.0 mi WNW 11.5 mph - N/A   Overcast